STARLINK-30065 (55701 NORAD) Tracking and Keplerian Element Data

This shows tracking and keplerian element data for the satellite.

Feedback or suggestion? Click here.




ElementValue
Catalog55701
NameSTARLINK-30065
Epoch Orbit130
Epoch Day84.91667824
Epoch Year2023
RAAN128.3799
Inclination43.0051
Eccentricity0.0001338
Argument of Perigee283.6141
Mean Anonmoly339.0336
Mean Motion15.67997378
Decay Rate-0.00078872
L11 55701U 23026G 23084.91667824 -.00078872 00000+0 -69449-3 0 9999
L22 55701 43.0051 128.3799 0001338 283.6141 339.0336 15.67997378 1305



Live tracking and technical data element details for STARLINK-30065 (NORAD 55701). STARLINK-30065 can be tracked NOW for your location showing map with azimuth and elevation plus other details from your city location.







IsCatalogInMostPopularTable: catalog: 55701, numindb: 3
Update: records affected: 1



GetName: 55701 STARLINK-30065

Hit Count: updated at: Tue, 28 Mar 2023 01:55:43 GMT